COSMOS 1748

Satellite information

Favourite Embed

Satellite Type and Status

PAYLOADIN ORBIT

Key statistics

Satellite COSMOS 1748 at a glance.

Uptime

14339

Days in orbit

Revolutions

≈ 12.5

Per day

Orbit

LEO

Low Earth Orbit

Inclination

74.0

Latest

Satellite identification and parameters

Extended collection of information and parameters for COSMOS 1748.

Object identification

Identified? True

Debris? False

Object name: COSMOS 1748

International designator: 1986-042A

Object number (NORAD): 16758

Object ID (CCSDS): 16758

Country: COMMONWEALTH OF INDEPENDENT STATES (CIS)

Current information (Y/N): Y

RCS size: MEDIUM

Orbital parameters

Period: 115.128 minutes

Inclination: 74.0195 deg

SMA: 7839.36 km

Apoapsis: 1469.137 km

Periapsis: 1453.313 km

RAAN: 309.8472 deg

Eccentricy: 0.00100925

Argument of periapsis: 160.975 deg

Mean anomaly: 13.8279 deg

Mean motion: 12.50782598 rev/day

Mean motion (dot): 0.00000012 rev/day2

B* drag term: 0.0001849337 1/REarth

Two-line elements (TLE)

Creation date: Sept. 8, 2025, 3:16 a.m.

Reference frame: TEME

Reference center: EARTH

Epoch: Sept. 7, 2025, 9:42 p.m. UTC

TLE line 0: 0 COSMOS 1748

TLE line 1: 1 16758U 86042A 25250.90440476 .00000012 00000-0 18493-3 0 9996

TLE line 2: 2 16758 74.0195 309.8472 0010093 160.9750 13.8279 12.50782598792532

Live tracking on map

Real-time ground track for satellite COSMOS 1748.

In-orbit conjunctions

There are no conjunctions computed for COSMOS 1748, at the moment. Check back to stay up to date, as we update our databases every day.

Go to all conjunctions

Associated space launch

Military communications satellites

COSMOS 1748 was lifted into orbit during the mission ‘Kosmos-3M | Strela-1M 305-312’, on board a Kosmos-3M space rocket.

The launch took place on June 6, 1986, 3:57 a.m. from 132/1 (132L).

For more information about the launch, click the button.

Launch to space Kosmos-3M | Strela-1M 305-312
Kosmos-3M | Strela-1M 305-312

Agency: N/A

Status: Launch Successful

Launch date: June 6, 1986, 3:57 a.m. UTC

Rocket: Kosmos-3M

Launch pad: 132/1 (132L)

Location: Plesetsk Cosmodrome, Russian Federation

...

Latest news about this satellite

There are no fresh news available about this satellite. Check back as we update our databases every day.


Newsletter sign-up

Weekly statistics, charts and insights to help you stay on top of the space industry.